Tehachapi, CA

5:41 AM PST on December 13, 2019 (GMT -0800)
Tehachapi Municipal

Weather History for KTSP - November, 2019

Change the Weather History Date:

Saturday, November 16, 2019

  Actual Average Record
Temperature  
Mean Temperature 52 °F -  
Max Temperature 71 °F 59 °F 66 °F (2017)
Min Temperature 32 °F 34 °F 28 °F (2015)
Degree Days  
Heating Degree Days 14    
Growing Degree Days 2 (Base 50)    
Moisture  
Dew Point 33 °F    
Average Humidity 65    
Maximum Humidity 100    
Minimum Humidity 15    
Precipitation  
Precipitation 0.00 in - - ()
Sea Level Pressure  
Sea Level Pressure 30.18 in    
Wind  
Wind Speed 4 mph ()    
Max Wind Speed 15 mph    
Max Gust Speed 20 mph    
Visibility 5.7 miles    
Events Fog , Rain    
Averages and records for this station are not official NWS values.
T = Trace of Precipitation, MM = Missing Value Source: Averaged Metar Reports

Daily Weather History Graph

Daily Weather History Graph

Search for Another Location

Airport or City:

Astronomy

Nov. 16, 2019 Rise Set
Actual Time 6:29 AM PST 4:47 PM PST
Civil Twilight 6:02 AM PST 5:14 PM PST
Nautical Twilight 5:31 AM PST 5:45 PM PST
Astronomical Twilight 5:01 AM PST 6:15 PM PST
Moon 8:28 PM PST (11/16) 10:23 AM PST (11/16)
Length of Visible Light 11h 12m
Length of Day
10h 17m
Waning Gibbous, 81% of the Moon is Illuminated
Nov 16
Waning Gibbous
Nov 19
Last Quarter
Nov 26
New
Dec 3
First Quarter
Dec 11
Full

Hourly Weather History & Observations

Time (PST) Temp. Windchill Dew Point Humidity Pressure Visibility Wind Dir Wind Speed Gust Speed Precip Events Conditions
12:15 AM 41.0 °F 38.0 °F 41.0 °F 100% 30.18 in 0.5 mi East 4.6 mph - N/A Fog Fog
12:35 AM 41.0 °F 38.0 °F 41.0 °F 100% 30.18 in 0.5 mi SE 4.6 mph - N/A Fog Fog
12:55 AM 39.2 °F 35.0 °F 39.2 °F 100% 30.18 in 0.2 mi ESE 5.8 mph - N/A Fog Fog
1:15 AM 37.4 °F 31.4 °F 37.4 °F 100% 30.17 in 0.2 mi ESE 8.1 mph - N/A Rain Light Rain
1:35 AM 37.4 °F 32.8 °F 37.4 °F 100% 30.17 in 0.2 mi SE 5.8 mph - N/A Rain Light Rain
1:55 AM 35.6 °F - 35.6 °F 100% 30.17 in 0.2 mi Calm Calm - N/A Fog Fog
2:15 AM 35.6 °F - 35.6 °F 100% 30.16 in 0.2 mi Calm Calm - N/A Fog Fog
2:35 AM 33.8 °F - 33.8 °F 100% 30.15 in 0.2 mi Calm Calm - N/A Fog Fog
2:55 AM 32.0 °F - 32.0 °F 100% 30.15 in 0.2 mi Calm Calm - N/A Fog Fog
3:15 AM 32.0 °F - 32.0 °F 100% 30.15 in 0.2 mi Calm Calm - N/A Fog Fog
3:35 AM 32.0 °F - 32.0 °F 100% 30.16 in 3.0 mi Calm Calm - N/A   Clear
3:55 AM 32.0 °F 28.7 °F 32.0 °F 100% 30.17 in 5.0 mi WSW 3.5 mph - N/A   Clear
4:15 AM 35.6 °F - 35.6 °F 100% 30.17 in 3.0 mi Calm Calm - N/A   Mostly Cloudy
4:35 AM 33.8 °F - 33.8 °F 100% 30.18 in 3.0 mi Calm Calm - N/A   Overcast
4:55 AM 35.6 °F - 35.6 °F 100% 30.18 in 2.0 mi Calm Calm - N/A   Overcast
5:15 AM 37.4 °F - 37.4 °F 100% 30.18 in 1.0 mi Calm Calm - N/A   Overcast
5:35 AM 37.4 °F 34.9 °F 37.4 °F 100% 30.18 in 0.2 mi East 3.5 mph - N/A Fog Fog
5:55 AM 39.2 °F 37.0 °F 39.2 °F 100% 30.18 in 0.2 mi ESE 3.5 mph - N/A Fog Fog
6:15 AM 37.4 °F 33.8 °F 37.4 °F 100% 30.18 in 0.2 mi ESE 4.6 mph - N/A Rain Light Rain
6:35 AM 33.8 °F 28.6 °F 33.8 °F 100% 30.18 in 1.8 mi SE 5.8 mph - N/A   Mostly Cloudy
6:55 AM 32.0 °F 26.4 °F 32.0 °F 100% 30.19 in 1.8 mi SE 5.8 mph - N/A   Clear
7:15 AM 33.8 °F 27.7 °F 33.8 °F 100% 30.20 in 2.0 mi SE 6.9 mph - N/A   Clear
7:35 AM 35.6 °F - 35.6 °F 100% 30.20 in 2.5 mi Calm Calm - N/A   Clear
7:55 AM 37.4 °F - 37.4 °F 100% 30.20 in 4.0 mi Calm Calm - N/A   Clear
8:15 AM 41.0 °F - 41.0 °F 100% 30.20 in 5.0 mi Calm Calm - N/A   Clear
8:35 AM 46.4 °F - 41.0 °F 81% 30.20 in 6.0 mi Calm Calm - N/A   Haze
9:15 AM 57.2 °F - 37.4 °F 48% 30.20 in 6.0 mi SE 4.6 mph - N/A   Haze
9:35 AM 62.6 °F - 32.0 °F 32% 30.20 in 10.0 mi SE 8.1 mph - N/A   Clear
9:55 AM 66.2 °F - 28.4 °F 24% 30.20 in 9.0 mi ESE 9.2 mph - N/A   Clear
10:15 AM 69.8 °F - 24.8 °F 18% 30.19 in 9.0 mi ESE 11.5 mph 16.1 mph N/A   Clear
10:35 AM 71.6 °F - 23.0 °F 16% 30.19 in 10.0 mi ESE 10.4 mph 19.6 mph N/A   Clear
10:55 AM 71.6 °F - 21.2 °F 15% 30.18 in 10.0 mi ESE 12.7 mph 16.1 mph N/A   Clear
11:15 AM 71.6 °F - 21.2 °F 15% 30.17 in 10.0 mi East 9.2 mph - N/A   Clear
11:55 AM 71.6 °F - 21.2 °F 15% 30.16 in 8.0 mi ESE 9.2 mph 17.3 mph N/A   Clear
12:15 PM 71.6 °F - 23.0 °F 16% 30.15 in 8.0 mi SE 11.5 mph 16.1 mph N/A   Clear
12:35 PM 71.6 °F - 23.0 °F 16% 30.15 in 9.0 mi ESE 8.1 mph - N/A   Clear
12:55 PM 71.6 °F - 23.0 °F 16% 30.15 in 8.0 mi SE 9.2 mph - N/A   Clear
1:15 PM 68.0 °F - 35.6 °F 30% 30.14 in 8.0 mi WNW 8.1 mph - N/A   Clear
1:35 PM 64.4 °F - 39.2 °F 40% 30.14 in 6.0 mi NW 15.0 mph - N/A   Haze
1:55 PM 62.6 °F - 41.0 °F 45% 30.15 in 5.0 mi NW 13.8 mph - N/A   Haze
2:15 PM 64.4 °F - 41.0 °F 42% 30.15 in 5.0 mi NW 10.4 mph - N/A   Haze
2:35 PM 60.8 °F - 41.0 °F 48% 30.15 in 5.0 mi NW 6.9 mph - N/A   Haze
2:55 PM 60.8 °F - 41.0 °F 48% 30.15 in 5.0 mi WNW 6.9 mph - N/A   Haze
3:15 PM 60.8 °F - 41.0 °F 48% 30.16 in 6.0 mi WNW 8.1 mph - N/A   Haze
3:35 PM 59.0 °F - 39.2 °F 48% 30.17 in 6.0 mi WNW 8.1 mph - N/A   Haze
3:55 PM 60.8 °F - 37.4 °F 42% 30.16 in 7.0 mi Calm Calm - N/A   Clear
4:15 PM 59.0 °F - 39.2 °F 48% 30.17 in 6.0 mi North 3.5 mph - N/A   Haze
4:35 PM 57.2 °F - 39.2 °F 51% 30.16 in 6.0 mi NW 4.6 mph - N/A   Haze
4:55 PM 57.2 °F - 37.4 °F 48% 30.17 in 8.0 mi NW 5.8 mph - N/A   Clear
5:15 PM 53.6 °F - 39.2 °F 58% 30.18 in 7.0 mi WSW 4.6 mph - N/A   Clear
5:35 PM 51.8 °F - 41.0 °F 67% 30.19 in 6.0 mi West 4.6 mph - N/A   Haze
6:15 PM 44.6 °F 39.7 °F 37.4 °F 76% 30.19 in 6.0 mi SE 9.2 mph - N/A   Haze
6:35 PM 46.4 °F - 32.0 °F 57% 30.19 in 9.0 mi Calm Calm - N/A   Clear
6:55 PM 48.2 °F - 32.0 °F 54% 30.20 in 8.0 mi ESE 4.6 mph - N/A   Clear
7:15 PM 46.4 °F 43.5 °F 26.6 °F 46% 30.20 in 10.0 mi SE 5.8 mph - N/A   Clear
7:35 PM 44.6 °F 41.4 °F 24.8 °F 46% 30.20 in 10.0 mi SE 5.8 mph - N/A   Clear
7:55 PM 42.8 °F - 26.6 °F 53% 30.19 in 10.0 mi Calm Calm - N/A   Clear
8:15 PM 42.8 °F - 28.4 °F 57% 30.19 in 10.0 mi Calm Calm - N/A   Clear
8:35 PM 41.0 °F - 28.4 °F 61% 30.20 in 10.0 mi Calm Calm - N/A   Clear
8:55 PM 41.0 °F - 26.6 °F 57% 30.20 in 10.0 mi Calm Calm - N/A   Clear
9:15 PM 41.0 °F 39.0 °F 26.6 °F 57% 30.20 in 10.0 mi East 3.5 mph - N/A   Clear
9:35 PM 39.2 °F - 26.6 °F 61% 30.20 in 10.0 mi Calm Calm - N/A   Clear
9:55 PM 37.4 °F - 26.6 °F 65% 30.20 in 10.0 mi Calm Calm - N/A   Clear
10:15 PM 39.2 °F - 26.6 °F 61% 30.21 in 10.0 mi Calm Calm - N/A   Clear
10:35 PM 41.0 °F 35.8 °F 24.8 °F 53% 30.21 in 10.0 mi SE 8.1 mph - N/A   Partly Cloudy
11:15 PM 41.0 °F 35.2 °F 24.8 °F 53% 30.21 in 10.0 mi ESE 9.2 mph - N/A   Partly Cloudy
11:35 PM 41.0 °F 37.1 °F 23.0 °F 49% 30.20 in 10.0 mi ESE 5.8 mph - N/A   Partly Cloudy
11:55 PM 42.8 °F 41.1 °F 23.0 °F 46% 30.20 in 10.0 mi East 3.5 mph - N/A   Partly Cloudy